Time,TemperatureF,DewpointF,PressureIn,WindDirection,WindDirectionDegrees,WindSpeedMPH,WindSpeedGustMPH,Humidity,HourlyPrecipIn,Conditions,Clouds,dailyrainin,SoftwareType,DateUTC
2013-01-12 00:00:00,56.8,55.7,30.01,SW,221,1.0,3.0,96,0.00,,,0.41,Wunderground v.1.15,2013-01-12 05:00:00,
2013-01-12 00:01:00,56.8,55.7,30.01,SSW,211,1.0,3.0,96,0.00,,,0.00,Wunderground v.1.15,2013-01-12 05:01:00,
2013-01-12 00:02:00,56.8,55.7,30.01,SW,217,0.0,3.0,96,0.00,,,0.00,Wunderground v.1.15,2013-01-12 05:02:00,
2013-01-12 00:03:00,56.8,55.7,30.01,WSW,248,0.0,3.0,96,0.00,,,0.00,Wunderground v.1.15,2013-01-12 05:03:00,
2013-01-12 00:08:00,56.8,55.7,30.00,SSE,166,1.0,3.0,96,0.00,,,0.00,Wunderground v.1.15,2013-01-12 05:08:00,
2013-01-12 00:14:00,56.9,55.8,30.00,SSW,211,1.0,2.0,96,0.00,,,0.00,Wunderground v.1.15,2013-01-12 05:14:00,
2013-01-12 00:19:00,56.7,55.6,30.00,SE,146,1.0,1.0,96,0.00,,,0.00,Wunderground v.1.15,2013-01-12 05:19:00,
2013-01-12 00:25:00,56.7,55.6,30.00,SSW,195,1.0,3.0,96,0.00,,,0.00,Wunderground v.1.15,2013-01-12 05:25:00,
2013-01-12 00:31:00,56.6,55.5,30.00,South,188,1.0,2.0,96,0.00,,,0.00,Wunderground v.1.15,2013-01-12 05:31:00,
2013-01-12 00:36:00,56.3,55.2,30.00,SSW,205,1.0,2.0,96,0.00,,,0.00,Wunderground v.1.15,2013-01-12 05:36:00,
2013-01-12 00:41:00,56.3,55.5,30.00,South,187,1.0,2.0,97,0.00,,,0.00,Wunderground v.1.15,2013-01-12 05:41:00,
2013-01-12 00:47:00,56.3,55.5,30.00,SSE,150,1.0,2.0,97,0.00,,,0.00,Wunderground v.1.15,2013-01-12 05:47:00,
2013-01-12 00:53:00,56.3,55.5,30.00,SSW,207,2.0,2.0,97,0.00,,,0.00,Wunderground v.1.15,2013-01-12 05:53:00,
2013-01-12 00:59:00,56.3,55.5,30.00,SE,143,2.0,4.0,97,0.00,,,0.00,Wunderground v.1.15,2013-01-12 05:59:00,
2013-01-12 01:04:00,56.2,55.1,30.00,SSE,162,2.0,2.0,96,0.00,,,0.00,Wunderground v.1.15,2013-01-12 06:04:00,
2013-01-12 01:09:00,56.1,55.3,30.00,SSE,157,1.0,1.0,97,0.00,,,0.00,Wunderground v.1.15,2013-01-12 06:09:00,
2013-01-12 01:16:00,55.8,54.7,29.99,SSE,167,1.0,1.0,96,0.00,,,0.00,Wunderground v.1.15,2013-01-12 06:16:00,
2013-01-12 01:21:00,55.6,54.8,29.99,SSE,159,1.0,1.0,97,0.00,,,0.00,Wunderground v.1.15,2013-01-12 06:21:00,
2013-01-12 01:26:00,55.8,55.0,29.99,SSW,203,1.0,2.0,97,0.00,,,0.00,Wunderground v.1.15,2013-01-12 06:26:00,
2013-01-12 01:32:00,56.0,55.4,29.99,South,191,1.0,1.0,98,0.00,,,0.00,Wunderground v.1.15,2013-01-12 06:32:00,
2013-01-12 01:38:00,56.1,55.5,29.99,South,187,1.0,2.0,98,0.00,,,0.00,Wunderground v.1.15,2013-01-12 06:38:00,
2013-01-12 01:44:00,56.2,55.6,29.99,SSE,150,1.0,2.0,98,0.00,,,0.00,Wunderground v.1.15,2013-01-12 06:44:00,
2013-01-12 01:50:00,56.2,55.6,30.00,SSW,194,0.0,0.0,98,0.00,,,0.00,Wunderground v.1.15,2013-01-12 06:50:00,
2013-01-12 01:56:00,56.1,55.5,30.00,SW,219,0.0,2.0,98,0.00,,,0.00,Wunderground v.1.15,2013-01-12 06:56:00,
2013-01-12 02:01:00,56.1,55.5,30.00,WSW,245,0.0,2.0,98,0.00,,,0.00,Wunderground v.1.15,2013-01-12 07:01:00,
2013-01-12 02:07:00,56.2,55.6,30.00,SW,220,0.0,2.0,98,0.00,,,0.00,Wunderground v.1.15,2013-01-12 07:07:00,
2013-01-12 02:13:00,56.6,56.0,30.00,South,181,1.0,3.0,98,0.00,,,0.00,Wunderground v.1.15,2013-01-12 07:13:00,
2013-01-12 02:19:00,56.9,56.3,30.00,SW,219,2.0,2.0,98,0.00,,,0.00,Wunderground v.1.15,2013-01-12 07:19:00,
2013-01-12 02:25:00,57.0,56.4,30.00,SW,229,1.0,2.0,98,0.00,,,0.00,Wunderground v.1.15,2013-01-12 07:25:00,
2013-01-12 02:31:00,57.2,56.6,30.01,SW,226,1.0,1.0,98,0.00,,,0.00,Wunderground v.1.15,2013-01-12 07:31:00,
2013-01-12 02:36:00,57.5,56.9,30.01,SW,231,1.0,3.0,98,0.00,,,0.00,Wunderground v.1.15,2013-01-12 07:36:00,
2013-01-12 02:42:00,57.8,57.2,30.01,SSW,200,2.0,4.0,98,0.00,,,0.00,Wunderground v.1.15,2013-01-12 07:42:00,
2013-01-12 02:48:00,58.0,57.2,30.01,WSW,253,2.0,4.0,97,0.00,,,0.00,Wunderground v.1.15,2013-01-12 07:48:00,
2013-01-12 02:53:00,58.1,57.3,30.01,WSW,246,1.0,3.0,97,0.00,,,0.00,Wunderground v.1.15,2013-01-12 07:53:00,
2013-01-12 03:00:00,58.3,57.5,30.01,SSW,204,3.0,3.0,97,0.00,,,0.00,Wunderground v.1.15,2013-01-12 08:00:00,
2013-01-12 03:05:00,58.4,57.3,30.01,SSW,207,3.0,4.0,96,0.00,,,0.00,Wunderground v.1.15,2013-01-12 08:05:00,
2013-01-12 03:11:00,58.2,57.1,30.01,SSW,212,1.0,3.0,96,0.00,,,0.00,Wunderground v.1.15,2013-01-12 08:11:00,
2013-01-12 03:16:00,58.1,57.0,30.01,SSW,205,1.0,3.0,96,0.00,,,0.00,Wunderground v.1.15,2013-01-12 08:16:00,
2013-01-12 03:21:00,58.1,57.0,30.01,SW,221,2.0,2.0,96,0.00,,,0.00,Wunderground v.1.15,2013-01-12 08:21:00,
2013-01-12 03:28:00,58.1,57.0,30.01,West,264,1.0,2.0,96,0.00,,,0.00,Wunderground v.1.15,2013-01-12 08:28:00,
2013-01-12 03:34:00,57.9,56.8,30.01,WSW,246,1.0,1.0,96,0.00,,,0.00,Wunderground v.1.15,2013-01-12 08:34:00,
2013-01-12 03:39:00,57.8,56.7,30.00,South,190,1.0,1.0,96,0.00,,,0.00,Wunderground v.1.15,2013-01-12 08:39:00,
2013-01-12 03:45:00,57.7,56.6,30.00,SW,218,1.0,3.0,96,0.00,,,0.00,Wunderground v.1.15,2013-01-12 08:45:00,
2013-01-12 03:51:00,57.4,56.6,30.00,SSW,207,1.0,1.0,97,0.00,,,0.00,Wunderground v.1.15,2013-01-12 08:51:00,
2013-01-12 03:57:00,57.6,56.8,30.00,SW,224,1.0,1.0,97,0.00,,,0.00,Wunderground v.1.15,2013-01-12 08:57:00,
2013-01-12 04:02:00,57.6,56.8,30.00,SSE,156,1.0,2.0,97,0.00,,,0.00,Wunderground v.1.15,2013-01-12 09:02:00,
2013-01-12 04:08:00,57.6,56.8,30.00,SW,236,1.0,2.0,97,0.00,,,0.00,Wunderground v.1.15,2013-01-12 09:08:00,
2013-01-12 04:14:00,57.4,56.6,30.00,SW,232,1.0,4.0,97,0.00,,,0.00,Wunderground v.1.15,2013-01-12 09:14:00,
2013-01-12 04:19:00,57.6,56.8,30.00,SW,229,1.0,1.0,97,0.00,,,0.00,Wunderground v.1.15,2013-01-12 09:19:00,
2013-01-12 04:25:00,57.6,56.8,30.00,West,261,1.0,1.0,97,0.00,,,0.00,Wunderground v.1.15,2013-01-12 09:25:00,
2013-01-12 04:31:00,57.6,56.8,30.00,WSW,250,1.0,2.0,97,0.00,,,0.00,Wunderground v.1.15,2013-01-12 09:31:00,
2013-01-12 04:36:00,57.8,57.2,30.00,SW,236,1.0,2.0,98,0.00,,,0.00,Wunderground v.1.15,2013-01-12 09:36:00,
2013-01-12 04:43:00,57.9,57.3,30.00,SSW,208,1.0,2.0,98,0.00,,,0.00,Wunderground v.1.15,2013-01-12 09:43:00,
2013-01-12 04:48:00,58.1,57.3,30.00,South,178,1.0,2.0,97,0.00,,,0.00,Wunderground v.1.15,2013-01-12 09:48:00,
2013-01-12 04:54:00,58.1,57.3,30.00,SSW,204,1.0,3.0,97,0.00,,,0.00,Wunderground v.1.15,2013-01-12 09:54:00,
2013-01-12 05:00:00,58.1,57.3,29.99,WSW,242,1.0,1.0,97,0.00,,,0.00,Wunderground v.1.15,2013-01-12 10:00:00,
2013-01-12 05:05:00,58.4,57.8,29.99,SSE,163,1.0,2.0,98,0.00,,,0.00,Wunderground v.1.15,2013-01-12 10:05:00,
2013-01-12 05:11:00,58.5,57.9,30.00,SW,231,1.0,2.0,98,0.00,,,0.00,Wunderground v.1.15,2013-01-12 10:11:00,
2013-01-12 05:17:00,58.7,57.9,30.00,SW,226,1.0,2.0,97,0.00,,,0.00,Wunderground v.1.15,2013-01-12 10:17:00,
2013-01-12 05:23:00,59.0,58.4,30.00,SW,215,2.0,4.0,98,0.00,,,0.00,Wunderground v.1.15,2013-01-12 10:23:00,
2013-01-12 05:28:00,59.2,58.3,30.00,WSW,248,2.0,4.0,97,0.00,,,0.00,Wunderground v.1.15,2013-01-12 10:28:00,
2013-01-12 05:34:00,59.2,58.3,30.00,South,179,2.0,4.0,97,0.00,,,0.00,Wunderground v.1.15,2013-01-12 10:34:00,
2013-01-12 05:40:00,59.4,58.5,30.00,South,188,2.0,3.0,97,0.00,,,0.00,Wunderground v.1.15,2013-01-12 10:40:00,
2013-01-12 05:46:00,59.5,58.6,30.00,South,191,3.0,3.0,97,0.00,,,0.00,Wunderground v.1.15,2013-01-12 10:46:00,
2013-01-12 05:51:00,59.4,58.5,30.00,SW,222,3.0,3.0,97,0.00,,,0.00,Wunderground v.1.15,2013-01-12 10:51:00,
2013-01-12 05:57:00,59.3,58.2,30.00,SSE,166,2.0,3.0,96,0.00,,,0.00,Wunderground v.1.15,2013-01-12 10:57:00,
2013-01-12 06:02:00,59.0,57.9,30.00,SSE,160,2.0,2.0,96,0.00,,,0.00,Wunderground v.1.15,2013-01-12 11:02:00,
2013-01-12 06:08:00,58.7,57.6,30.00,SSW,207,2.0,2.0,96,0.00,,,0.00,Wunderground v.1.15,2013-01-12 11:08:00,
2013-01-12 06:14:00,58.5,57.4,30.00,SSE,167,2.0,2.0,96,0.00,,,0.00,Wunderground v.1.15,2013-01-12 11:14:00,
2013-01-12 06:19:00,58.3,57.5,30.00,SE,132,1.0,1.0,97,0.00,,,0.00,Wunderground v.1.15,2013-01-12 11:19:00,
2013-01-12 06:25:00,58.0,57.2,30.00,SSE,159,1.0,3.0,97,0.00,,,0.00,Wunderground v.1.15,2013-01-12 11:25:00,
2013-01-12 06:31:00,58.0,57.4,30.01,SSW,195,1.0,2.0,98,0.00,,,0.00,Wunderground v.1.15,2013-01-12 11:31:00,
2013-01-12 06:37:00,58.0,57.2,30.01,WSW,251,1.0,2.0,97,0.00,,,0.00,Wunderground v.1.15,2013-01-12 11:37:00,
2013-01-12 06:42:00,58.0,57.4,30.01,SE,145,1.0,2.0,98,0.00,,,0.00,Wunderground v.1.15,2013-01-12 11:42:00,
2013-01-12 06:48:00,58.0,57.4,30.01,SSW,194,1.0,2.0,98,0.00,,,0.00,Wunderground v.1.15,2013-01-12 11:48:00,
2013-01-12 06:54:00,58.0,57.4,30.02,SSW,194,1.0,2.0,98,0.00,,,0.00,Wunderground v.1.15,2013-01-12 11:54:00,
2013-01-12 07:00:00,57.9,57.3,30.02,SW,215,1.0,1.0,98,0.00,,,0.00,Wunderground v.1.15,2013-01-12 12:00:00,
2013-01-12 07:06:00,57.6,57.0,30.02,SW,221,0.0,1.0,98,0.00,,,0.00,Wunderground v.1.15,2013-01-12 12:06:00,
2013-01-12 07:12:00,57.5,56.9,30.02,SSW,208,0.0,1.0,98,0.00,,,0.00,Wunderground v.1.15,2013-01-12 12:12:00,
2013-01-12 07:17:00,57.9,57.3,30.02,SSW,211,0.0,2.0,98,0.00,,,0.00,Wunderground v.1.15,2013-01-12 12:17:00,
2013-01-12 07:23:00,57.8,57.2,30.03,WSW,243,1.0,1.0,98,0.00,,,0.00,Wunderground v.1.15,2013-01-12 12:23:00,
2013-01-12 07:29:00,57.8,57.2,30.03,South,186,0.0,1.0,98,0.00,,,0.00,Wunderground v.1.15,2013-01-12 12:29:00,
2013-01-12 07:35:00,58.0,57.4,30.03,WSW,255,1.0,2.0,98,0.00,,,0.00,Wunderground v.1.15,2013-01-12 12:35:00,
2013-01-12 07:40:00,58.4,58.1,30.03,SSW,201,2.0,2.0,99,0.00,,,0.00,Wunderground v.1.15,2013-01-12 12:40:00,
2013-01-12 07:46:00,58.5,58.2,30.04,SW,214,2.0,2.0,99,0.00,,,0.00,Wunderground v.1.15,2013-01-12 12:46:00,
2013-01-12 07:52:00,58.6,58.0,30.04,SW,221,1.0,1.0,98,0.00,,,0.00,Wunderground v.1.15,2013-01-12 12:52:00,
2013-01-12 07:58:00,58.8,58.2,30.04,SSW,211,1.0,3.0,98,0.00,,,0.00,Wunderground v.1.15,2013-01-12 12:58:00,
2013-01-12 08:04:00,59.1,58.8,30.05,SSW,197,2.0,4.0,99,0.00,,,0.00,Wunderground v.1.15,2013-01-12 13:04:00,
2013-01-12 08:09:00,59.3,58.7,30.05,SE,146,2.0,2.0,98,0.00,,,0.00,Wunderground v.1.15,2013-01-12 13:09:00,
2013-01-12 08:15:00,59.6,59.0,30.05,South,183,2.0,2.0,98,0.00,,,0.00,Wunderground v.1.15,2013-01-12 13:15:00,
2013-01-12 08:21:00,59.7,59.1,30.05,SSW,212,1.0,1.0,98,0.00,,,0.00,Wunderground v.1.15,2013-01-12 13:21:00,
2013-01-12 08:28:00,59.9,59.3,30.05,South,181,1.0,2.0,98,0.00,,,0.00,Wunderground v.1.15,2013-01-12 13:28:00,
2013-01-12 08:33:00,60.1,59.5,30.05,SSW,201,1.0,3.0,98,0.00,,,0.00,Wunderground v.1.15,2013-01-12 13:33:00,
2013-01-12 08:40:00,60.3,59.4,30.06,SSW,208,1.0,1.0,97,0.00,,,0.00,Wunderground v.1.15,2013-01-12 13:40:00,
2013-01-12 08:45:00,60.4,59.5,30.06,SSE,158,0.0,2.0,97,0.00,,,0.00,Wunderground v.1.15,2013-01-12 13:45:00,
2013-01-12 08:51:00,60.5,59.6,30.06,SSW,203,2.0,2.0,97,0.00,,,0.00,Wunderground v.1.15,2013-01-12 13:51:00,
2013-01-12 08:57:00,60.5,59.6,30.06,SSW,193,2.0,2.0,97,0.00,,,0.00,Wunderground v.1.15,2013-01-12 13:57:00,
2013-01-12 09:02:00,60.5,59.6,30.06,South,190,2.0,4.0,97,0.00,,,0.00,Wunderground v.1.15,2013-01-12 14:02:00,
2013-01-12 09:08:00,60.6,59.7,30.06,South,186,2.0,4.0,97,0.00,,,0.00,Wunderground v.1.15,2013-01-12 14:08:00,
2013-01-12 09:13:00,60.7,59.8,30.06,South,184,2.0,2.0,97,0.00,,,0.00,Wunderground v.1.15,2013-01-12 14:13:00,
2013-01-12 09:19:00,60.8,59.9,30.06,SW,223,1.0,2.0,97,0.00,,,0.00,Wunderground v.1.15,2013-01-12 14:19:00,
2013-01-12 09:24:00,60.9,59.8,30.07,SW,226,1.0,2.0,96,0.00,,,0.00,Wunderground v.1.15,2013-01-12 14:24:00,
2013-01-12 09:30:00,60.8,59.7,30.07,SE,146,1.0,2.0,96,0.00,,,0.00,Wunderground v.1.15,2013-01-12 14:30:00,
2013-01-12 09:36:00,60.9,59.8,30.07,SSE,155,2.0,2.0,96,0.00,,,0.00,Wunderground v.1.15,2013-01-12 14:36:00,
2013-01-12 09:42:00,60.9,59.8,30.07,SSE,150,1.0,2.0,96,0.00,,,0.00,Wunderground v.1.15,2013-01-12 14:42:00,
2013-01-12 09:48:00,60.9,60.0,30.07,South,186,1.0,3.0,97,0.00,,,0.00,Wunderground v.1.15,2013-01-12 14:48:00,
2013-01-12 09:53:00,61.1,60.2,30.07,SSE,164,2.0,2.0,97,0.00,,,0.00,Wunderground v.1.15,2013-01-12 14:53:00,
2013-01-12 10:00:00,61.3,60.2,30.07,SSE,159,2.0,2.0,96,0.00,,,0.00,Wunderground v.1.15,2013-01-12 15:00:00,
2013-01-12 10:05:00,61.3,60.2,30.06,SE,146,2.0,4.0,96,0.00,,,0.00,Wunderground v.1.15,2013-01-12 15:05:00,
2013-01-12 10:11:00,61.7,60.5,30.06,SSW,198,2.0,2.0,96,0.00,,,0.00,Wunderground v.1.15,2013-01-12 15:11:00,
2013-01-12 10:17:00,62.8,61.6,30.05,SSE,157,1.0,3.0,96,0.00,,,0.00,Wunderground v.1.15,2013-01-12 15:17:00,
2013-01-12 10:23:00,63.8,62.3,30.05,SSW,198,2.0,4.0,95,0.00,,,0.00,Wunderground v.1.15,2013-01-12 15:23:00,
2013-01-12 10:29:00,64.6,62.5,30.06,SSE,166,3.0,4.0,93,0.00,,,0.00,Wunderground v.1.15,2013-01-12 15:29:00,
2013-01-12 10:34:00,65.3,62.9,30.06,South,188,3.0,4.0,92,0.00,,,0.00,Wunderground v.1.15,2013-01-12 15:34:00,
2013-01-12 10:40:00,65.7,63.0,30.06,SSW,195,3.0,3.0,91,0.00,,,0.00,Wunderground v.1.15,2013-01-12 15:40:00,
2013-01-12 10:45:00,65.9,62.9,30.06,South,169,3.0,4.0,90,0.00,,,0.00,Wunderground v.1.15,2013-01-12 15:45:00,
2013-01-12 10:51:00,66.0,63.0,30.05,SSW,211,3.0,4.0,90,0.00,,,0.00,Wunderground v.1.15,2013-01-12 15:51:00,
2013-01-12 10:57:00,66.4,63.1,30.05,SW,226,3.0,4.0,89,0.00,,,0.00,Wunderground v.1.15,2013-01-12 15:57:00,
2013-01-12 11:02:00,66.7,63.4,30.04,SE,129,3.0,3.0,89,0.00,,,0.00,Wunderground v.1.15,2013-01-12 16:02:00,
2013-01-12 11:08:00,67.0,63.3,30.04,SSW,203,3.0,3.0,88,0.00,,,0.00,Wunderground v.1.15,2013-01-12 16:08:00,
2013-01-12 11:14:00,67.1,63.4,30.04,SW,225,3.0,5.0,88,0.00,,,0.00,Wunderground v.1.15,2013-01-12 16:14:00,
2013-01-12 11:20:00,67.1,63.1,30.03,SW,215,3.0,5.0,87,0.00,,,0.00,Wunderground v.1.15,2013-01-12 16:20:00,
2013-01-12 11:25:00,66.8,63.1,30.04,SSW,212,4.0,5.0,88,0.00,,,0.00,Wunderground v.1.15,2013-01-12 16:25:00,
2013-01-12 11:31:00,66.4,62.7,30.04,WSW,251,4.0,4.0,88,0.00,,,0.00,Wunderground v.1.15,2013-01-12 16:31:00,
2013-01-12 11:37:00,66.2,62.9,30.03,SSW,205,4.0,5.0,89,0.00,,,0.00,Wunderground v.1.15,2013-01-12 16:37:00,
2013-01-12 11:44:00,66.2,62.9,30.03,SSE,165,3.0,4.0,89,0.00,,,0.00,Wunderground v.1.15,2013-01-12 16:44:00,
2013-01-12 11:50:00,66.3,63.0,30.03,South,184,3.0,3.0,89,0.00,,,0.00,Wunderground v.1.15,2013-01-12 16:50:00,
2013-01-12 11:55:00,66.5,63.2,30.02,SSE,158,3.0,4.0,89,0.00,,,0.00,Wunderground v.1.15,2013-01-12 16:55:00,
2013-01-12 12:00:00,66.6,63.3,30.02,SSW,203,3.0,3.0,89,0.00,,,0.00,Wunderground v.1.15,2013-01-12 17:00:00,
2013-01-12 12:05:00,66.9,63.6,30.02,WSW,237,2.0,4.0,89,0.00,,,0.00,Wunderground v.1.15,2013-01-12 17:05:00,
2013-01-12 12:11:00,67.1,63.4,30.02,SSW,195,2.0,3.0,88,0.00,,,0.00,Wunderground v.1.15,2013-01-12 17:11:00,
2013-01-12 12:17:00,67.1,63.4,30.02,SSE,165,2.0,5.0,88,0.00,,,0.00,Wunderground v.1.15,2013-01-12 17:17:00,
2013-01-12 12:22:00,66.9,63.2,30.02,SW,225,2.0,5.0,88,0.00,,,0.00,Wunderground v.1.15,2013-01-12 17:22:00,
2013-01-12 12:28:00,66.8,63.1,30.02,ESE,114,2.0,5.0,88,0.00,,,0.00,Wunderground v.1.15,2013-01-12 17:28:00,
2013-01-12 12:34:00,66.7,63.0,30.02,SW,231,3.0,7.0,88,0.00,,,0.00,Wunderground v.1.15,2013-01-12 17:34:00,
2013-01-12 12:39:00,66.7,63.0,30.01,SSW,203,3.0,3.0,88,0.00,,,0.00,Wunderground v.1.15,2013-01-12 17:39:00,
2013-01-12 12:45:00,66.7,63.0,30.01,South,173,3.0,7.0,88,0.00,,,0.00,Wunderground v.1.15,2013-01-12 17:45:00,
2013-01-12 12:51:00,66.8,63.1,30.01,South,169,3.0,4.0,88,0.00,,,0.00,Wunderground v.1.15,2013-01-12 17:51:00,
2013-01-12 12:57:00,66.8,63.1,30.01,SSW,207,4.0,7.0,88,0.00,,,0.00,Wunderground v.1.15,2013-01-12 17:57:00,
2013-01-12 13:02:00,66.7,63.0,30.01,South,187,4.0,5.0,88,0.00,,,0.00,Wunderground v.1.15,2013-01-12 18:02:00,
2013-01-12 13:08:00,66.3,63.0,30.01,SE,125,4.0,6.0,89,0.00,,,0.00,Wunderground v.1.15,2013-01-12 18:08:00,
2013-01-12 13:14:00,66.0,63.0,30.01,South,190,5.0,9.0,90,0.00,,,0.00,Wunderground v.1.15,2013-01-12 18:14:00,
2013-01-12 13:19:00,65.7,63.0,30.00,South,174,4.0,4.0,91,0.00,,,0.00,Wunderground v.1.15,2013-01-12 18:19:00,
2013-01-12 13:25:00,65.4,63.0,30.00,SSE,159,4.0,5.0,92,0.00,,,0.00,Wunderground v.1.15,2013-01-12 18:25:00,
2013-01-12 13:31:00,65.0,62.9,30.00,South,181,3.0,4.0,93,0.00,,,0.01,Wunderground v.1.15,2013-01-12 18:31:00,
2013-01-12 13:37:00,64.7,62.9,30.00,SE,131,3.0,4.0,94,0.00,,,0.01,Wunderground v.1.15,2013-01-12 18:37:00,
2013-01-12 13:42:00,64.4,62.6,29.99,SSE,156,3.0,5.0,94,0.00,,,0.01,Wunderground v.1.15,2013-01-12 18:42:00,
2013-01-12 13:48:00,64.3,62.8,29.99,SE,145,3.0,5.0,95,0.00,,,0.02,Wunderground v.1.15,2013-01-12 18:48:00,
2013-01-12 13:54:00,64.3,62.8,29.99,SSE,153,3.0,3.0,95,0.00,,,0.02,Wunderground v.1.15,2013-01-12 18:54:00,
2013-01-12 14:00:00,64.4,62.9,29.99,South,179,2.0,2.0,95,0.00,,,0.02,Wunderground v.1.15,2013-01-12 19:00:00,
2013-01-12 14:06:00,64.5,63.3,29.99,SSE,166,1.0,2.0,96,0.00,,,0.03,Wunderground v.1.15,2013-01-12 19:06:00,
2013-01-12 14:11:00,64.4,63.2,29.99,SE,135,1.0,3.0,96,0.00,,,0.03,Wunderground v.1.15,2013-01-12 19:11:00,
2013-01-12 14:17:00,64.4,63.2,29.99,SSE,163,1.0,3.0,96,0.00,,,0.03,Wunderground v.1.15,2013-01-12 19:17:00,
2013-01-12 14:23:00,64.5,63.3,29.99,SE,139,1.0,2.0,96,0.00,,,0.03,Wunderground v.1.15,2013-01-12 19:23:00,
2013-01-12 14:29:00,64.5,63.3,29.99,SW,224,1.0,2.0,96,0.00,,,0.03,Wunderground v.1.15,2013-01-12 19:29:00,
2013-01-12 14:34:00,64.5,63.3,29.99,SE,142,1.0,2.0,96,0.00,,,0.03,Wunderground v.1.15,2013-01-12 19:34:00,
2013-01-12 14:40:00,64.5,63.3,29.99,SSE,149,1.0,1.0,96,0.00,,,0.03,Wunderground v.1.15,2013-01-12 19:40:00,
2013-01-12 14:45:00,64.5,63.3,29.99,SSE,150,1.0,1.0,96,0.00,,,0.04,Wunderground v.1.15,2013-01-12 19:45:00,
2013-01-12 14:52:00,64.4,63.2,29.99,SE,131,1.0,2.0,96,0.09,,,0.05,Wunderground v.1.15,2013-01-12 19:52:00,
2013-01-12 14:57:00,64.3,63.1,29.99,SSE,156,2.0,3.0,96,0.07,,,0.05,Wunderground v.1.15,2013-01-12 19:57:00,
2013-01-12 15:03:00,64.3,63.1,29.99,SSE,164,2.0,2.0,96,0.06,,,0.06,Wunderground v.1.15,2013-01-12 20:03:00,
2013-01-12 15:08:00,64.3,63.1,29.99,SE,146,2.0,3.0,96,0.06,,,0.06,Wunderground v.1.15,2013-01-12 20:08:00,
2013-01-12 15:14:00,64.2,63.0,29.99,SSE,150,2.0,3.0,96,0.04,,,0.06,Wunderground v.1.15,2013-01-12 20:14:00,
2013-01-12 15:20:00,64.2,63.3,29.99,SSE,159,1.0,1.0,97,0.00,,,0.06,Wunderground v.1.15,2013-01-12 20:20:00,
2013-01-12 15:27:00,64.2,63.3,29.99,SE,138,1.0,1.0,97,0.00,,,0.06,Wunderground v.1.15,2013-01-12 20:27:00,
2013-01-12 15:33:00,64.2,63.3,29.99,SW,214,1.0,1.0,97,0.00,,,0.06,Wunderground v.1.15,2013-01-12 20:33:00,
2013-01-12 15:38:00,64.1,62.9,29.99,SSE,150,1.0,3.0,96,0.00,,,0.06,Wunderground v.1.15,2013-01-12 20:38:00,
2013-01-12 15:44:00,64.1,63.2,29.98,South,172,1.0,3.0,97,0.00,,,0.07,Wunderground v.1.15,2013-01-12 20:44:00,
2013-01-12 15:49:00,64.1,63.2,29.99,SSW,204,1.0,1.0,97,0.00,,,0.07,Wunderground v.1.15,2013-01-12 20:49:00,
2013-01-12 15:54:00,64.1,63.2,29.99,SE,139,2.0,3.0,97,0.00,,,0.07,Wunderground v.1.15,2013-01-12 20:54:00,
2013-01-12 16:00:00,64.0,63.1,29.98,ESE,120,2.0,3.0,97,0.00,,,0.07,Wunderground v.1.15,2013-01-12 21:00:00,
2013-01-12 16:05:00,64.1,63.2,29.99,SW,235,1.0,3.0,97,0.00,,,0.07,Wunderground v.1.15,2013-01-12 21:05:00,
2013-01-12 16:11:00,64.1,63.2,29.98,SSW,203,1.0,2.0,97,0.00,,,0.07,Wunderground v.1.15,2013-01-12 21:11:00,
2013-01-12 16:16:00,64.1,63.2,29.98,SSE,167,1.0,3.0,97,0.00,,,0.07,Wunderground v.1.15,2013-01-12 21:16:00,
2013-01-12 16:22:00,64.0,63.1,29.98,SSE,149,1.0,3.0,97,0.00,,,0.07,Wunderground v.1.15,2013-01-12 21:22:00,
2013-01-12 16:28:00,63.9,63.0,29.98,SSE,153,1.0,3.0,97,0.00,,,0.07,Wunderground v.1.15,2013-01-12 21:28:00,
2013-01-12 16:34:00,63.7,62.8,29.98,SE,143,1.0,2.0,97,0.00,,,0.07,Wunderground v.1.15,2013-01-12 21:34:00,
2013-01-12 16:39:00,63.7,62.8,29.97,SSE,149,1.0,1.0,97,0.00,,,0.08,Wunderground v.1.15,2013-01-12 21:39:00,
2013-01-12 16:45:00,63.6,62.7,29.97,South,183,2.0,5.0,97,0.10,,,0.09,Wunderground v.1.15,2013-01-12 21:45:00,
2013-01-12 16:51:00,63.5,62.6,29.96,SSW,213,4.0,5.0,97,0.07,,,0.10,Wunderground v.1.15,2013-01-12 21:51:00,
2013-01-12 16:56:00,63.5,62.6,29.96,SSE,160,4.0,6.0,97,0.07,,,0.10,Wunderground v.1.15,2013-01-12 21:56:00,
2013-01-12 17:01:00,63.5,62.6,29.96,SSE,147,4.0,5.0,97,0.05,,,0.10,Wunderground v.1.15,2013-01-12 22:01:00,
2013-01-12 17:07:00,63.5,62.6,29.95,SSE,151,4.0,5.0,97,0.00,,,0.10,Wunderground v.1.15,2013-01-12 22:07:00,
2013-01-12 17:13:00,63.5,62.6,29.96,SSE,149,5.0,5.0,97,0.00,,,0.10,Wunderground v.1.15,2013-01-12 22:13:00,
2013-01-12 17:19:00,63.4,62.5,29.95,South,170,5.0,5.0,97,0.00,,,0.10,Wunderground v.1.15,2013-01-12 22:19:00,
2013-01-12 17:24:00,63.4,62.5,29.95,SE,141,5.0,8.0,97,0.00,,,0.10,Wunderground v.1.15,2013-01-12 22:24:00,
2013-01-12 17:30:00,63.4,62.5,29.95,SSE,166,5.0,5.0,97,0.00,,,0.10,Wunderground v.1.15,2013-01-12 22:30:00,
2013-01-12 17:36:00,63.3,62.4,29.96,SE,135,5.0,5.0,97,0.00,,,0.10,Wunderground v.1.15,2013-01-12 22:36:00,
2013-01-12 17:42:00,63.2,62.3,29.95,South,174,4.0,5.0,97,0.00,,,0.10,Wunderground v.1.15,2013-01-12 22:42:00,
2013-01-12 17:47:00,63.2,62.3,29.95,SSE,158,3.0,5.0,97,0.00,,,0.10,Wunderground v.1.15,2013-01-12 22:47:00,
2013-01-12 17:53:00,63.1,62.2,29.95,SE,143,2.0,5.0,97,0.00,,,0.10,Wunderground v.1.15,2013-01-12 22:53:00,
2013-01-12 18:00:00,63.1,62.2,29.95,SSE,148,3.0,3.0,97,0.00,,,0.10,Wunderground v.1.15,2013-01-12 23:00:00,
2013-01-12 18:05:00,63.0,62.1,29.95,SE,130,4.0,5.0,97,0.00,,,0.10,Wunderground v.1.15,2013-01-12 23:05:00,
2013-01-12 18:11:00,63.0,62.1,29.95,SSE,155,4.0,5.0,97,0.00,,,0.10,Wunderground v.1.15,2013-01-12 23:11:00,
2013-01-12 18:17:00,62.9,62.0,29.95,SSE,148,3.0,5.0,97,0.00,,,0.10,Wunderground v.1.15,2013-01-12 23:17:00,
2013-01-12 18:22:00,62.8,61.9,29.95,SW,232,2.0,3.0,97,0.00,,,0.10,Wunderground v.1.15,2013-01-12 23:22:00,
2013-01-12 18:28:00,62.8,62.2,29.95,South,186,2.0,5.0,98,0.00,,,0.10,Wunderground v.1.15,2013-01-12 23:28:00,
2013-01-12 18:34:00,62.8,62.2,29.95,SE,143,3.0,5.0,98,0.00,,,0.10,Wunderground v.1.15,2013-01-12 23:34:00,
2013-01-12 18:39:00,62.8,62.2,29.95,SE,128,2.0,2.0,98,0.00,,,0.10,Wunderground v.1.15,2013-01-12 23:39:00,
2013-01-12 18:45:00,62.8,62.2,29.95,SSE,155,1.0,2.0,98,0.00,,,0.10,Wunderground v.1.15,2013-01-12 23:45:00,
2013-01-12 18:51:00,62.8,62.2,29.95,SSE,158,2.0,2.0,98,0.00,,,0.10,Wunderground v.1.15,2013-01-12 23:51:00,
2013-01-12 18:56:00,62.7,62.1,29.95,South,173,1.0,2.0,98,0.00,,,0.10,Wunderground v.1.15,2013-01-12 23:56:00,
2013-01-12 19:02:00,62.7,62.1,29.95,South,187,1.0,2.0,98,0.00,,,0.10,Wunderground v.1.15,2013-01-13 00:02:00,
2013-01-12 19:07:00,62.6,62.0,29.94,SE,146,1.0,4.0,98,0.00,,,0.10,Wunderground v.1.15,2013-01-13 00:07:00,
2013-01-12 19:13:00,62.5,61.6,29.94,SSE,149,1.0,5.0,97,0.00,,,0.10,Wunderground v.1.15,2013-01-13 00:13:00,
2013-01-12 19:19:00,62.4,61.5,29.93,SE,141,2.0,3.0,97,0.00,,,0.10,Wunderground v.1.15,2013-01-13 00:19:00,
2013-01-12 19:25:00,62.6,62.0,29.93,SSE,148,3.0,3.0,98,0.00,,,0.10,Wunderground v.1.15,2013-01-13 00:25:00,
2013-01-12 19:31:00,62.5,61.6,29.93,ESE,123,3.0,4.0,97,0.00,,,0.10,Wunderground v.1.15,2013-01-13 00:31:00,
2013-01-12 19:38:00,62.3,61.4,29.92,ESE,112,2.0,4.0,97,0.00,,,0.10,Wunderground v.1.15,2013-01-13 00:38:00,
2013-01-12 19:44:00,62.3,61.4,29.92,ESE,106,3.0,4.0,97,0.00,,,0.10,Wunderground v.1.15,2013-01-13 00:44:00,
2013-01-12 19:50:00,62.1,61.2,29.92,SE,129,3.0,3.0,97,0.00,,,0.10,Wunderground v.1.15,2013-01-13 00:50:00,
2013-01-12 19:55:00,62.0,61.1,29.92,SE,134,2.0,3.0,97,0.00,,,0.10,Wunderground v.1.15,2013-01-13 00:55:00,
2013-01-12 20:01:00,62.0,61.4,29.92,SE,125,2.0,3.0,98,0.00,,,0.10,Wunderground v.1.15,2013-01-13 01:01:00,
2013-01-12 20:06:00,62.0,61.4,29.92,SE,129,3.0,3.0,98,0.00,,,0.10,Wunderground v.1.15,2013-01-13 01:06:00,
2013-01-12 20:12:00,62.1,61.5,29.92,SE,129,3.0,3.0,98,0.00,,,0.10,Wunderground v.1.15,2013-01-13 01:12:00,
2013-01-12 20:18:00,62.0,61.1,29.92,SW,217,2.0,3.0,97,0.00,,,0.10,Wunderground v.1.15,2013-01-13 01:18:00,
2013-01-12 20:24:00,61.9,61.0,29.92,SE,143,1.0,3.0,97,0.00,,,0.10,Wunderground v.1.15,2013-01-13 01:24:00,
2013-01-12 20:30:00,61.9,61.0,29.92,SSE,167,1.0,2.0,97,0.00,,,0.10,Wunderground v.1.15,2013-01-13 01:30:00,
2013-01-12 20:37:00,62.1,61.2,29.92,SSW,193,2.0,4.0,97,0.00,,,0.10,Wunderground v.1.15,2013-01-13 01:37:00,
2013-01-12 20:42:00,62.3,61.1,29.92,SSE,149,2.0,2.0,96,0.00,,,0.10,Wunderground v.1.15,2013-01-13 01:42:00,
2013-01-12 20:48:00,62.6,61.7,29.92,SSW,208,2.0,3.0,97,0.00,,,0.10,Wunderground v.1.15,2013-01-13 01:48:00,
2013-01-12 20:54:00,62.7,61.5,29.92,SSW,204,2.0,4.0,96,0.00,,,0.10,Wunderground v.1.15,2013-01-13 01:54:00,
2013-01-12 21:00:00,62.8,61.6,29.92,SSW,200,2.0,2.0,96,0.00,,,0.10,Wunderground v.1.15,2013-01-13 02:00:00,
2013-01-12 21:05:00,62.7,61.5,29.92,SSE,163,2.0,3.0,96,0.00,,,0.10,Wunderground v.1.15,2013-01-13 02:05:00,
2013-01-12 21:10:00,62.4,60.9,29.91,SE,136,1.0,2.0,95,0.00,,,0.10,Wunderground v.1.15,2013-01-13 02:10:00,
2013-01-12 21:16:00,62.3,61.1,29.91,SE,141,2.0,3.0,96,0.00,,,0.10,Wunderground v.1.15,2013-01-13 02:16:00,
2013-01-12 21:22:00,62.1,60.9,29.91,SSW,204,1.0,3.0,96,0.00,,,0.10,Wunderground v.1.15,2013-01-13 02:22:00,
2013-01-12 21:28:00,62.0,60.8,29.91,SSW,205,1.0,3.0,96,0.00,,,0.10,Wunderground v.1.15,2013-01-13 02:28:00,
2013-01-12 21:34:00,61.9,60.7,29.91,SSW,193,1.0,1.0,96,0.00,,,0.10,Wunderground v.1.15,2013-01-13 02:34:00,
2013-01-12 21:40:00,61.7,60.5,29.91,SSE,153,0.0,0.0,96,0.00,,,0.10,Wunderground v.1.15,2013-01-13 02:40:00,
2013-01-12 21:46:00,61.6,60.4,29.91,SSE,156,0.0,2.0,96,0.00,,,0.10,Wunderground v.1.15,2013-01-13 02:46:00,
2013-01-12 21:51:00,61.4,60.2,29.90,South,179,0.0,1.0,96,0.00,,,0.10,Wunderground v.1.15,2013-01-13 02:51:00,
2013-01-12 21:57:00,61.4,60.5,29.90,South,179,1.0,1.0,97,0.00,,,0.10,Wunderground v.1.15,2013-01-13 02:57:00,
2013-01-12 22:02:00,61.4,60.5,29.90,SSE,153,1.0,2.0,97,0.00,,,0.10,Wunderground v.1.15,2013-01-13 03:02:00,
2013-01-12 22:08:00,61.4,60.5,29.90,SSE,167,1.0,2.0,97,0.00,,,0.10,Wunderground v.1.15,2013-01-13 03:08:00,
2013-01-12 22:14:00,61.7,60.8,29.90,South,176,1.0,3.0,97,0.00,,,0.10,Wunderground v.1.15,2013-01-13 03:14:00,
2013-01-12 22:20:00,61.9,60.7,29.89,SE,134,2.0,2.0,96,0.00,,,0.10,Wunderground v.1.15,2013-01-13 03:20:00,
2013-01-12 22:26:00,62.3,61.1,29.90,SSW,192,3.0,5.0,96,0.00,,,0.10,Wunderground v.1.15,2013-01-13 03:26:00,
2013-01-12 22:32:00,62.6,61.1,29.90,SSE,153,3.0,3.0,95,0.00,,,0.10,Wunderground v.1.15,2013-01-13 03:32:00,
2013-01-12 22:38:00,62.8,61.0,29.89,SE,136,3.0,8.0,94,0.00,,,0.10,Wunderground v.1.15,2013-01-13 03:38:00,
2013-01-12 22:43:00,63.1,61.0,29.90,ESE,121,4.0,10.0,93,0.00,,,0.10,Wunderground v.1.15,2013-01-13 03:43:00,
2013-01-12 22:48:00,63.3,61.2,29.89,SE,129,4.0,10.0,93,0.00,,,0.10,Wunderground v.1.15,2013-01-13 03:48:00,
2013-01-12 22:54:00,63.4,61.0,29.90,SSE,163,4.0,7.0,92,0.00,,,0.10,Wunderground v.1.15,2013-01-13 03:54:00,
2013-01-12 23:00:00,63.3,60.9,29.90,South,175,4.0,4.0,92,0.00,,,0.10,Wunderground v.1.15,2013-01-13 04:00:00,
2013-01-12 23:05:00,63.3,60.9,29.90,South,186,4.0,9.0,92,0.00,,,0.10,Wunderground v.1.15,2013-01-13 04:05:00,
2013-01-12 23:10:00,63.2,60.5,29.90,SSW,212,4.0,4.0,91,0.00,,,0.10,Wunderground v.1.15,2013-01-13 04:10:00,
2013-01-12 23:16:00,63.2,60.5,29.89,SW,215,4.0,9.0,91,0.00,,,0.10,Wunderground v.1.15,2013-01-13 04:16:00,
2013-01-12 23:21:00,63.1,60.4,29.90,SSE,158,4.0,6.0,91,0.00,,,0.10,Wunderground v.1.15,2013-01-13 04:21:00,
2013-01-12 23:27:00,63.1,60.1,29.89,SSW,194,4.0,8.0,90,0.00,,,0.10,Wunderground v.1.15,2013-01-13 04:27:00,
2013-01-12 23:33:00,63.2,60.2,29.89,South,180,4.0,7.0,90,0.00,,,0.10,Wunderground v.1.15,2013-01-13 04:33:00,
2013-01-12 23:39:00,63.4,60.1,29.89,SSW,204,5.0,5.0,89,0.00,,,0.10,Wunderground v.1.15,2013-01-13 04:39:00,
2013-01-12 23:45:00,63.5,60.2,29.89,South,181,5.0,5.0,89,0.00,,,0.10,Wunderground v.1.15,2013-01-13 04:45:00,
2013-01-12 23:51:00,63.4,60.1,29.89,South,184,4.0,4.0,89,0.00,,,0.10,Wunderground v.1.15,2013-01-13 04:51:00,
2013-01-12 23:57:00,63.1,59.8,29.89,SSE,166,4.0,5.0,89,0.00,,,0.10,Wunderground v.1.15,2013-01-13 04:57:00,